Voltar ao catálogo

FENGYUN 1C DEB

AtivoPO
NORAD 37902·DEBRIS·🇨🇳 China

Lançado May 10, 1999 de Taiyuan Satellite Launch Center

Loading…

Próximas Passagens (próximas 24 horas)

TLE

AtualizadoSource: Space-Track

Época: Sep 14, 2026, 11:38 UTC

1 37902U 99025ENB 26257.48474028  .00001281  00000-0  14194-2 0  9998
2 37902  98.6728  89.2749 0319121 315.2839  42.2969 13.53564875667064

Acompanhe FENGYUN 1C DEB em tempo real com AllMySat

Download on the App Store